Location: Kerb�bon
(47.7970°N, 3.3487°W)
Time: 13:32:41
(UTC+00:00)

Cosmos 1862 Rocket - Pass Details

Date: 12 May 2021
Orbit: 604 x 633 km, 82.5° (Epoch: 18 June)

Event Time Altitude Azimuth Distance (km) Brightness Sun altitude
Exits shadow 22:27:31 36° 101° (ESE) 973 4.2 -20.0°
Maximum altitude 22:27:50 36° 91° (E) 964 4.3 -20.0°
Drops below altitude 10° 22:31:48 10° 25° (NNE) 1,964 6.6 -20.3°
Sets 22:34:08 0° 17° (NNE) 2,872 7.7 -20.4°
